CZ-6A DEB

Satellite information

Favourite Embed

Satellite Type and Status

DEBRISIN ORBIT

Key statistics

Satellite CZ-6A DEB at a glance.

Uptime

494

Days in orbit

Revolutions

≈ 14.2

Per day

Orbit

LEO

Low Earth Orbit

Inclination

89.0

Latest

Satellite identification and parameters

Extended collection of information and parameters for CZ-6A DEB.

Object identification

Identified? True

Debris? True

Object name: CZ-6A DEB

International designator: 2024-140KU

Object number (NORAD): 60889

Object ID (CCSDS): 60889

Country: PEOPLES REPUBLIC OF CHINA (PRC)

Current information (Y/N): Y

RCS size: SMALL

Orbital parameters

Period: 101.216 minutes

Inclination: 89.0039 deg

SMA: 7194.363 km

Apoapsis: 845.148 km

Periapsis: 787.308 km

RAAN: 295.8186 deg

Eccentricy: 0.00401981

Argument of periapsis: 78.6153 deg

Mean anomaly: 281.955 deg

Mean motion: 14.22703058 rev/day

Mean motion (dot): 0.00002979 rev/day2

B* drag term: 0.0013138189 1/REarth

Two-line elements (TLE)

Creation date: Dec. 12, 2025, 10:14 a.m.

Reference frame: TEME

Reference center: EARTH

Epoch: Dec. 12, 2025, 6:40 a.m. UTC

TLE line 0: 0 CZ-6A DEB

TLE line 1: 1 60889U 24140KU 25346.27789968 .00002979 00000-0 13138-2 0 9993

TLE line 2: 2 60889 89.0039 295.8186 0040198 78.6153 281.9550 14.22703058 66940

Live tracking on map

Real-time ground track for satellite CZ-6A DEB.

In-orbit conjunctions

A list of the most updated potential collisions computed for object CZ-6A DEB.

Target Orbit TCA Probability of collision Miss distance Type
CZ-6A DEB SSO 2025-02-28 03:09:24 0.0001034858 951.0 (m) DEBRIS
PSLV R/B SSO 2025-02-27 09:25:00 0.0001276977 535.0 (m) ROCKET BODY
FENGYUN 1C DEB SSO 2025-01-29 22:57:15 0.0001443223 323.0 (m) DEBRIS
CZ-4 DEB SSO 2025-01-27 12:39:33 0.0001314709 69.0 (m) DEBRIS
COSMOS 2251 DEB LEO 2024-09-21 12:01:48 0.000106325 476.0 (m) DEBRIS

Associated space launch

18 Low Earth Orbit communication satellites with Ku, Q and V band payloads for the G60 constellation operated by Shanghai Spacecom Satellite Technology (SSST) with funding backed by the Shanghai local government. Initial constellation will consist of 1296 satellites by 2027 with long term plans to expand it to 12000 satellites.

CZ-6A DEB was lifted into orbit during the mission ‘Long March 6A | G60 Polar Group 01’, on board a Long March 6A space rocket.

The launch took place on Aug. 6, 2024, 6:42 a.m. from Launch Complex 9A.

For more information about the launch, click the button.

Launch to space Long March 6A | G60 Polar Group 01
Long March 6A | G60 Polar Group 01

Agency: N/A

Status: Launch Successful

Launch date: Aug. 6, 2024, 6:42 a.m. UTC

Rocket: Long March 6A

Launch pad: Launch Complex 9A

Location: Taiyuan Satellite Launch Center, People's Republic of China

...

Latest news about this satellite

News about space launch
Brightness of first Chinese broadband constellation satellites alarms astronomers

The first satellites of a Chinese broadband constellation are significantly brighter than those of Western systems, posing a new challenge for astronomers.

News about space launch
Chinese rocket stage breaks up into cloud of more than 700 pieces of space debris

HELSINKI — A Chinese Long March 6A rocket’s upper stage has fragmented into a cloud of over 700 pieces of space debris, adding to concerns about long-term orbital safety. China […]

News about space launch
China's Thousand Sails Megaconstellation Kicks Off with Dangerous Debris Field

China's Thousand Sails Megaconstellation Kicks Off with Dangerous Debris Field


Newsletter sign-up

Weekly statistics, charts and insights to help you stay on top of the space industry.